TimeEDT,TemperatureF,Dew PointF,Humidity,Sea Level PressureIn,VisibilityMPH,Wind Direction,Wind SpeedMPH,Gust SpeedMPH,PrecipitationIn,Events,Conditions,WindDirDegrees,DateUTC
12:53 AM,82.0,77.0,85,30.13,10.0,SW,4.6,-,N/A,,Overcast,230,2013-07-22 04:53:00
1:53 AM,81.0,75.9,85,30.12,10.0,SW,4.6,-,N/A,,Overcast,220,2013-07-22 05:53:00
2:53 AM,81.0,77.0,88,30.10,10.0,SSW,6.9,-,N/A,,Scattered Clouds,210,2013-07-22 06:53:00
3:53 AM,81.0,77.0,88,30.08,10.0,SSW,4.6,-,N/A,,Overcast,200,2013-07-22 07:53:00
4:53 AM,80.1,75.9,87,30.08,10.0,SSW,3.5,-,N/A,,Overcast,210,2013-07-22 08:53:00
5:53 AM,80.1,77.0,90,30.09,10.0,South,5.8,-,N/A,,Mostly Cloudy,170,2013-07-22 09:53:00
6:53 AM,80.1,77.0,90,30.10,10.0,South,4.6,-,N/A,,Mostly Cloudy,180,2013-07-22 10:53:00
7:53 AM,81.0,77.0,88,30.12,10.0,South,5.8,-,N/A,,Scattered Clouds,180,2013-07-22 11:53:00
8:53 AM,82.9,77.0,82,30.14,10.0,South,6.9,-,N/A,,Scattered Clouds,190,2013-07-22 12:53:00
9:53 AM,84.0,77.0,79,30.14,10.0,South,9.2,-,N/A,,Scattered Clouds,190,2013-07-22 13:53:00
10:53 AM,84.0,77.0,79,30.14,10.0,South,9.2,-,N/A,,Scattered Clouds,190,2013-07-22 14:53:00
11:53 AM,87.1,78.1,74,30.14,10.0,South,11.5,-,N/A,,Scattered Clouds,190,2013-07-22 15:53:00
12:53 PM,89.1,77.0,67,30.13,10.0,SSW,10.4,-,N/A,,Scattered Clouds,200,2013-07-22 16:53:00
1:53 PM,89.1,73.9,61,30.12,10.0,WSW,10.4,-,N/A,,Scattered Clouds,240,2013-07-22 17:53:00
2:53 PM,90.0,75.0,61,30.12,10.0,WSW,11.5,-,N/A,,Scattered Clouds,240,2013-07-22 18:53:00
3:53 PM,89.1,73.9,61,30.09,10.0,WSW,11.5,-,N/A,,Scattered Clouds,250,2013-07-22 19:53:00
4:53 PM,88.0,75.0,65,30.09,10.0,WSW,11.5,-,N/A,,Scattered Clouds,250,2013-07-22 20:53:00
5:53 PM,87.1,75.0,67,30.10,10.0,WSW,10.4,-,N/A,,Mostly Cloudy,250,2013-07-22 21:53:00
6:53 PM,86.0,73.9,67,30.11,10.0,West,9.2,-,N/A,,Overcast,260,2013-07-22 22:53:00
7:53 PM,84.9,73.9,69,30.09,10.0,West,8.1,-,N/A,,Overcast,260,2013-07-22 23:53:00
8:53 PM,84.0,73.9,72,30.08,10.0,West,9.2,-,N/A,,Mostly Cloudy,260,2013-07-23 00:53:00
9:53 PM,82.9,75.0,77,30.11,10.0,West,6.9,-,N/A,,Mostly Cloudy,270,2013-07-23 01:53:00
10:53 PM,82.9,75.0,77,30.12,10.0,West,8.1,-,N/A,,Scattered Clouds,270,2013-07-23 02:53:00
11:53 PM,82.9,75.0,77,30.11,10.0,West,8.1,-,N/A,,Scattered Clouds,270,2013-07-23 03:53:00